Regional Weather Roundup
Issued by NWS

Home | Current Version | Previous Version | Graphics & Text | Print | Product List | Glossary On
Versions: 1 2 3 4 5 6 7 8 9 10 11 12 13 14 15 16 17 18 19 20 21 22 23 24 25 26 27 28 29 30 31 32 33 34 35 36 37 38 39 40 41 42 43 44 45 46 47 48 49 50
000
ASUS43 KIND 272359
RWRIN

WEATHER ROUNDUP FOR INDIANA
NATIONAL WEATHER SERVICE INDIANAPOLIS IN
800 PM EDT WED APR 27 2016

NOTE: "FAIR" INDICATES FEW OR NO CLOUDS BELOW 12,000 FEET WITH NO
SIGNIFICANT WEATHER AND/OR OBSTRUCTIONS TO VISIBILITY.

* - STATION DOES NOT REPORT WEATHER SUCH AS PRECIPITATION OR FOG.

+ - STATION NOT QUALITY CONTROLLED BY THE NATIONAL WEATHER SERVICE.
    USE DATA WITH CAUTION...ESPECIALLY DEWPOINT AND RELATIVE
    HUMIDITY OBSERVATIONS.

INZ001>003-010>013-019-020-280100-
NORTHWEST INDIANA

CITY           SKY/WX    TMP DP  RH WIND       PRES   REMARKS
GARY /AIRPORT/ LGT RAIN  45  45 100 N8        29.86S
MONTICELLO +   CLOUDY    56  47  70 E8        29.78F
6HR MIN TEMP:  54; 6HR MAX TEMP:  59; 6HR PCP:  0.01;

RENSSELAER +   CLOUDY    54  50  87 NE10      29.80R

$$

LMZ046-743>745-280100-
SOUTHERN LAKE MICHIGAN

STATION/POSITION TIME  TEMP    WIND        PRES    WAVE
                       AIR SEA DIR/SP/G            HT
                 (UTC) (F)     (DEG/KT/KT) (MB)    (FT)
BURNS HARBOR     2301   46      60/ 13/ 15 1011.2R
MICHIGAN CITY    2300   45      10/ 10/ 10   N/A

$$

INZ004-005-014>016-021>024-280100-
NORTH CENTRAL INDIANA

CITY           SKY/WX    TMP DP  RH WIND       PRES   REMARKS
ELKHART        CLOUDY    55  39  54 E13G25    29.83F
GOSHEN         CLOUDY    53  35  50 E16       29.82F
6HR MIN TEMP:  53; 6HR MAX TEMP:  59;

SOUTH BEND     CLOUDY    56  34  43 E13G25    29.83F
6HR MIN TEMP:  49; 6HR MAX TEMP:  59;


$$

INZ006>009-017-018-025>027-280100-
NORTHEAST INDIANA

CITY           SKY/WX    TMP DP  RH WIND       PRES   REMARKS
ANGOLA *+      CLOUDY    54  41  62 E10       29.90F
FORT WAYNE     CLOUDY    54  30  40 E24G33    29.79F
6HR MIN TEMP:  54; 6HR MAX TEMP:  60;


$$

INZ028-029-035-036-043>045-051>053-280100-
WEST CENTRAL INDIANA

CITY           SKY/WX    TMP DP  RH WIND       PRES   REMARKS
CRAWFORDSVL +  RAIN      56  56 100 E13       29.76F
6HR MIN TEMP:  56; 6HR MAX TEMP:  59; 6HR PCP:  0.04;

GREENCASTLE +  CLOUDY    59  59 100 E8        29.77S FOG
LAFAYETTE      CLOUDY    56  50  80 E8        29.79R
6HR MIN TEMP:  55; 6HR MAX TEMP:  58; 6HR PCP:  0.09;

TERRE HAUTE    CLOUDY    61  58  90 E10       29.72F FOG
6HR MIN TEMP:  60; 6HR MAX TEMP:  62; 6HR PCP:  0.11;


$$

INZ030>032-037>040-046>048-054>057-064-065-280100-
CENTRAL INDIANA

CITY           SKY/WX    TMP DP  RH WIND       PRES   REMARKS
COLUMBUS       CLOUDY    59  59 100 E7        29.77S FOG
INDIANAPOLIS   CLOUDY    60  55  83 E12       29.76S
6HR MIN TEMP:  58; 6HR MAX TEMP:  61; 6HR PCP:  0.05;

-EAGLE CREEK   CLOUDY    60  55  83 E7        29.77S
6HR MIN TEMP:  58; 6HR MAX TEMP:  60; 6HR PCP:  0.03;

KOKOMO *+      CLOUDY    57  45  62 E18       29.79R
6HR MIN TEMP:  57; 6HR MAX TEMP:  61;

SHELBYVILLE    CLOUDY    62  55  77 E12       29.78R
6HR MIN TEMP:  60; 6HR MAX TEMP:  64; 6HR PCP:  0.01;


$$

INZ033-034-041-042-049-050-058-059-280100-
EAST CENTRAL INDIANA

CITY           SKY/WX    TMP DP  RH WIND       PRES   REMARKS
MUNCIE         MOCLDY    59  48  67 E13       29.81R
6HR MIN TEMP:  59; 6HR MAX TEMP:  62; 6HR PCP: TRACE;


$$

INZ060-061-067>069-081>083-085>088-280100-
SOUTHWEST INDIANA

CITY           SKY/WX    TMP DP  RH WIND       PRES   REMARKS
EVANSVILLE     RAIN      64  61  90 S6        29.74R FOG
6HR MIN TEMP:  63; 6HR MAX TEMP:  71; 6HR PCP:  0.58;

HUNTINGBURG *+ CLOUDY    66  63  88 SE10      29.72S THUNDER
6HR MIN TEMP:  66; 6HR MAX TEMP:  70; 6HR PCP:  0.08;


$$

INZ062-063-066-070>080-084-089>092-280100-
SOUTH CENTRAL AND SOUTHEAST INDIANA

CITY           SKY/WX    TMP DP  RH WIND       PRES   REMARKS
BLOOMINGTON    LGT RAIN  62  59  90 E7        29.75S FOG
6HR MIN TEMP:  59; 6HR MAX TEMP:  62; 6HR PCP:  0.02;

MADISON *+     CLOUDY    63  59  88 S6        29.81R
SEYMOUR +      CLOUDY    63  61  94 CALM      29.78R FOG

$$





USA.gov is the U.S. government's official web portal to all federal, state and local government web resources and services.